W8CEN Weather Reports


time (UTC)temp
C
wind
direction
speed
KPH
gust
KPH
rain 1hr
cm
rain 24hr
cm
rain mn
cm
humidity
%
barometer
mb
20260503010705 6 350 0.0 0.0 0.00 0.00 0.00 64 995.3
20260503010202 6 350 0.0 0.0 0.00 0.00 0.00 63 995.5
20260503005659 6 350 0.0 0.0 0.00 0.00 0.00 62 995.3
20260503005156 6 350 0.0 0.0 0.00 0.00 0.00 60 995.4
20260503004652 7 350 0.0 0.0 0.00 0.00 0.00 60 995.3
20260503004151 7 350 0.0 0.0 0.00 0.00 0.00 58 995.2
20260503003648 7 350 0.0 0.0 0.00 0.00 0.00 58 995.4
20260503003145 7 343 0.0 0.0 0.00 0.00 0.00 57 995.4
20260503002641 7 342 0.0 0.0 0.00 0.00 0.00 57 995.4
20260503002138 7 350 0.0 0.0 0.00 0.00 0.00 55 995.3
20260503001634 7 336 0.0 0.0 0.00 0.00 0.00 56 995.4
20260503001131 7 336 0.0 0.0 0.00 0.00 0.00 55 995.4
20260503000629 7 320 0.0 0.0 0.00 0.00 0.00 51 995.4
20260503000126 8 322 0.0 0.0 0.00 0.00 0.00 53 995.2
20260502235622 8 331 0.0 0.0 0.00 0.00 0.00 51 995.0
20260502235121 8 333 0.0 0.0 0.00 0.00 0.00 50 995.4
20260502234616 8 327 0.0 0.0 0.00 0.00 0.00 52 995.3
20260502234114 8 330 0.0 0.0 0.00 0.00 0.00 49 995.3
20260502233609 8 311 0.0 0.0 0.00 0.00 0.00 49 995.1
20260502233107 8 305 0.0 0.0 0.00 0.00 0.00 48 995.1
20260502232602 8 283 0.0 0.0 0.00 0.00 0.00 48 995.2
20260502232100 8 320 0.0 0.0 0.00 0.00 0.00 48 995.2
20260502231557 8 317 1.6 1.6 0.00 0.00 0.00 46 995.2
20260502231055 8 316 0.0 0.0 0.00 0.00 0.00 47 995.3
20260502230553 8 283 0.0 0.0 0.00 0.00 0.00 47 995.2
20260502230051 9 295 0.0 1.6 0.00 0.00 0.00 43 995.3
20260502225546 9 357 0.0 0.0 0.00 0.00 0.00 47 995.4
20260502225043 9 335 0.0 1.6 0.00 0.00 0.00 44 995.3
20260502224539 9 350 0.0 0.0 0.00 0.00 0.00 45 995.4
20260502224037 9 13 0.0 0.0 0.00 0.00 0.00 46 995.4
20260502223535 9 319 0.0 1.6 0.00 0.00 0.00 45 995.3
20260502223033 9 286 1.6 1.6 0.00 0.00 0.00 43 995.2
20260502222529 9 229 1.6 3.2 0.00 0.00 0.00 45 995.3
20260502222026 9 345 0.0 0.0 0.00 0.00 0.00 48 995.2
20260502221521 9 240 3.2 4.8 0.00 0.00 0.00 45 995.2
20260502221019 9 315 1.6 1.6 0.00 0.00 0.00 44 995.4
20260502220514 9 333 0.0 0.0 0.00 0.00 0.00 46 995.5
20260502220012 9 336 0.0 0.0 0.00 0.00 0.00 46 995.4
20260502215509 9 355 1.6 1.6 0.00 0.00 0.00 43 995.3
20260502215005 10 358 0.0 0.0 0.00 0.00 0.00 47 995.5
20260502214503 10 329 0.0 1.6 0.00 0.00 0.00 44 995.5
20260502214000 9 359 0.0 0.0 0.00 0.00 0.00 46 995.3
20260502213456 9 84 1.6 1.6 0.00 0.00 0.00 44 995.3
20260502212955 9 33 1.6 1.6 0.00 0.00 0.00 45 995.4
20260502212453 9 357 0.0 0.0 0.00 0.00 0.00 46 995.1
20260502211950 9 0 0.0 0.0 0.00 0.00 0.00 48 995.4
20260502211446 9 354 0.0 0.0 0.00 0.00 0.00 44 995.2
20260502210944 9 249 1.6 3.2 0.00 0.00 0.00 41 995.3
20260502210440 10 257 3.2 3.2 0.00 0.00 0.00 42 995.4
20260502205937 10 58 0.0 0.0 0.00 0.00 0.00 45 995.3
20260502205433 10 265 1.6 1.6 0.00 0.00 0.00 42 995.5
20260502204931 10 271 3.2 3.2 0.00 0.00 0.00 43 995.4
20260502204427 10 243 3.2 3.2 0.00 0.00 0.00 44 995.3
20260502203926 11 5 0.0 0.0 0.00 0.00 0.00 39 995.5
20260502203423 11 350 0.0 0.0 0.00 0.00 0.00 42 995.4
20260502202918 10 312 0.0 1.6 0.00 0.00 0.00 44 995.3
20260502202416 10 335 1.6 1.6 0.00 0.00 0.00 44 995.3
20260502201914 10 283 1.6 3.2 0.00 0.00 0.00 41 995.5
20260502201409 10 344 0.0 1.6 0.00 0.00 0.00 45 995.6
20260502200906 10 28 1.6 1.6 0.00 0.00 0.00 42 995.6
20260502200401 10 298 0.0 0.0 0.00 0.00 0.00 45 995.9
20260502195900 10 357 1.6 1.6 0.00 0.00 0.00 45 995.9
20260502195356 10 255 1.6 3.2 0.00 0.00 0.00 45 995.7
20260502194853 10 330 0.0 0.0 0.00 0.00 0.00 46 995.8
20260502194350 10 258 1.6 3.2 0.00 0.00 0.00 43 995.9
20260502193846 10 350 1.6 1.6 0.00 0.00 0.00 45 995.8
20260502193343 10 250 3.2 3.2 0.00 0.00 0.00 47 995.9
20260502192838 10 201 0.0 1.6 0.00 0.00 0.00 41 995.8
20260502192336 10 347 1.6 1.6 0.00 0.00 0.00 42 996.1
20260502191833 10 280 1.6 1.6 0.00 0.00 0.00 46 995.9
20260502191331 10 334 1.6 1.6 0.00 0.00 0.00 45 996.1
20260502190828 10 357 0.0 0.0 0.00 0.00 0.00 50 996.1
20260502190325 10 19 0.0 1.6 0.00 0.00 0.00 50 996.4
20260502185820 9 359 0.0 0.0 0.00 0.00 0.00 53 996.2
20260502185316 9 353 0.0 0.0 0.00 0.00 0.00 51 996.1
20260502184814 9 9 0.0 1.6 0.00 0.00 0.00 48 996.3
20260502184309 10 27 0.0 1.6 0.00 0.00 0.00 50 996.3
20260502183806 10 275 1.6 1.6 0.00 0.00 0.00 47 996.4
20260502183302 10 15 0.0 1.6 0.00 0.00 0.00 49 996.5
20260502182757 10 212 0.0 1.6 0.00 0.00 0.00 46 996.4
20260502182253 10 349 1.6 1.6 0.00 0.00 0.00 48 996.5
20260502181750 10 340 0.0 1.6 0.00 0.00 0.00 49 996.4
20260502181249 10 324 0.0 1.6 0.00 0.00 0.00 51 996.5
20260502180746 10 7 1.6 1.6 0.00 0.00 0.00 51 996.6
20260502180244 10 273 3.2 3.2 0.00 0.00 0.00 48 996.8
20260502170208 7 1 0.0 0.0 0.00 0.00 0.00 59 996.9
20260502164154 8 5 0.0 0.0 0.00 0.00 0.00 56 996.9
20260502163650 8 348 0.0 1.6 0.00 0.00 0.00 54 997.1
20260502163147 8 20 0.0 0.0 0.00 0.00 0.00 51 997.0
20260502162644 8 18 0.0 0.0 0.00 0.00 0.00 53 997.0
20260502162141 8 37 3.2 3.2 0.00 0.00 0.00 54 997.1
20260502161638 8 76 1.6 1.6 0.00 0.00 0.00 54 997.1
20260502161135 8 263 0.0 1.6 0.00 0.00 0.00 55 997.2
20260502160633 8 330 0.0 1.6 0.00 0.00 0.00 59 997.0
20260502160131 7 215 0.0 0.0 0.00 0.00 0.00 55 997.4
20260502152045 8 50 1.6 1.6 0.00 0.00 0.00 60 997.1
20260502151542 8 16 1.6 1.6 0.00 0.00 0.00 55 997.1
20260502151040 8 308 3.2 3.2 0.00 0.00 0.00 63 996.9
20260502150537 7 31 3.2 3.2 0.00 0.00 0.00 60 997.0
20260502130422 5 346 0.0 0.0 0.00 0.00 0.00 81 996.4
20260502123405 4 313 0.0 0.0 0.00 0.00 0.00 84 996.1
20260502122902 4 272 1.6 1.6 0.00 0.00 0.00 82 996.3
20260502122358 5 279 1.6 1.6 0.00 0.00 0.00 81 996.3
20260502121856 5 285 1.6 1.6 0.00 0.00 0.00 81 996.2
20260502121353 5 293 0.0 1.6 0.00 0.00 0.00 81 996.4
20260502120851 5 37 0.0 0.0 0.00 0.00 0.00 81 996.2
20260502120346 5 63 0.0 0.0 0.00 0.00 0.00 81 996.0
20260502115844 4 7 0.0 1.6 0.00 0.00 0.00 80 996.1
20260502115341 4 18 0.0 0.0 0.00 0.00 0.00 83 996.1
20260502114837 4 1 0.0 0.0 0.00 0.00 0.00 83 996.0
20260502114334 4 44 0.0 0.0 0.00 0.00 0.00 83 996.0
20260502113831 4 33 1.6 1.6 0.00 0.00 0.00 84 995.9
20260502113329 3 28 0.0 0.0 0.00 0.00 0.00 86 995.9
20260502112827 3 2 0.0 0.0 0.00 0.00 0.00 86 995.9
20260502112324 3 2 0.0 0.0 0.00 0.00 0.00 86 995.8
20260502111821 3 9 0.0 0.0 0.00 0.00 0.00 86 995.8
20260502111319 3 13 0.0 0.0 0.00 0.00 0.00 86 995.7
20260502110817 3 24 0.0 0.0 0.00 0.00 0.00 87 995.8
20260502110314 3 1 0.0 0.0 0.00 0.00 0.00 88 995.6
20260502105812 3 358 0.0 0.0 0.00 0.00 0.00 89 995.8
20260502105308 3 358 0.0 0.0 0.00 0.00 0.00 89 995.9
20260502104806 3 358 0.0 0.0 0.00 0.00 0.00 89 995.6
20260502104303 3 342 0.0 0.0 0.00 0.00 0.00 90 995.7
20260502103800 3 312 0.0 0.0 0.00 0.00 0.00 92 995.5
20260502103257 3 337 0.0 0.0 0.00 0.00 0.00 93 995.6
20260502102755 3 332 0.0 0.0 0.00 0.00 0.00 93 995.5
20260502102251 3 333 0.0 0.0 0.00 0.00 0.00 93 995.6
20260502101749 3 342 0.0 0.0 0.00 0.00 0.00 93 995.5
20260502101247 3 342 0.0 0.0 0.00 0.00 0.00 92 995.7
20260502100745 3 341 0.0 0.0 0.00 0.00 0.00 92 995.6
20260502100243 3 342 0.0 0.0 0.00 0.00 0.00 92 995.4
20260502091217 3 48 0.0 0.0 0.00 0.00 0.00 91 995.3
20260502090715 3 31 1.6 1.6 0.00 0.00 0.00 91 995.6
20260502090211 3 33 1.6 1.6 0.00 0.00 0.00 91 995.3
20260502071113 3 249 1.6 3.2 0.00 0.00 0.00 92 994.5
20260502070611 3 261 0.0 1.6 0.00 0.00 0.00 95 994.6
20260502070109 3 273 1.6 1.6 0.00 0.00 0.00 96 994.5
20260502065607 3 243 1.6 1.6 0.00 0.00 0.00 97 994.6
20260502065104 3 8 0.0 0.0 0.00 0.00 0.00 97 994.6
20260502064603 3 14 0.0 0.0 0.00 0.00 0.00 97 994.4
20260502064059 3 15 0.0 0.0 0.00 0.00 0.00 97 994.7
20260502063557 3 15 0.0 0.0 0.00 0.00 0.00 97 994.9
20260502063055 3 15 0.0 0.0 0.00 0.00 0.00 96 994.7
20260502062551 3 19 0.0 0.0 0.00 0.00 0.00 96 994.7
20260502062049 3 18 0.0 0.0 0.00 0.00 0.00 96 994.6
20260502061547 3 19 0.0 0.0 0.00 0.00 0.00 96 994.8
20260502061044 3 19 0.0 0.0 0.00 0.00 0.00 96 994.9
20260502060539 3 12 0.0 0.0 0.00 0.00 0.00 96 994.8
20260502060036 3 13 0.0 0.0 0.00 0.00 0.00 96 994.7
20260502055534 3 13 0.0 0.0 0.00 0.00 0.00 96 994.8
20260502055032 3 17 0.0 0.0 0.00 0.00 0.00 96 994.9
20260502054531 4 358 0.0 0.0 0.00 0.00 0.00 95 995.0
20260502054027 4 358 0.0 0.0 0.00 0.00 0.00 96 995.0
20260502053524 4 8 0.0 0.0 0.00 0.00 0.00 95 995.0
20260502053022 4 8 0.0 0.0 0.00 0.00 0.00 95 994.8
20260502052520 4 8 0.0 0.0 0.00 0.00 0.00 95 995.0
20260502052018 4 8 0.0 0.0 0.00 0.00 0.00 95 995.0
20260502051516 4 8 0.0 0.0 0.00 0.00 0.00 95 995.1
20260502051013 4 9 0.0 0.0 0.00 0.00 0.00 95 995.1
20260502050509 4 8 0.0 0.0 0.00 0.00 0.00 94 995.2
20260502050007 4 10 0.0 0.0 0.00 0.00 0.00 94 995.2
20260502045503 4 10 0.0 0.0 0.00 0.00 0.00 93 995.2
20260502045001 5 6 0.0 0.0 0.00 0.00 0.00 93 995.1
20260502044456 5 357 0.0 0.0 0.00 0.00 0.00 92 995.1
20260502043953 5 357 0.0 0.0 0.00 0.00 0.00 92 995.3
20260502043451 5 357 0.0 0.0 0.00 0.00 0.00 93 995.2
20260502042950 5 355 0.0 0.0 0.00 0.00 0.00 93 995.2
20260502042447 5 336 0.0 0.0 0.00 0.00 0.00 93 995.3
20260502041945 5 359 0.0 0.0 0.00 0.00 0.00 93 995.2
20260502041442 5 351 0.0 0.0 0.00 0.00 0.00 92 995.2
20260502040939 5 28 0.0 0.0 0.00 0.00 0.00 93 995.3
20260502040435 5 353 0.0 0.0 0.00 0.00 0.00 92 995.2
20260502035932 5 354 0.0 0.0 0.00 1.50 1.50 92 995.2
20260502035428 5 340 0.0 0.0 0.00 1.50 1.50 92 995.1
20260502034926 5 119 0.0 0.0 0.00 1.50 1.50 93 995.0
20260502034425 5 164 0.0 0.0 0.00 1.50 1.50 94 995.0
20260502033923 5 323 0.0 0.0 0.00 1.50 1.50 95 994.9
20260502033420 5 317 0.0 0.0 0.00 1.50 1.50 95 994.9
20260502032916 5 335 0.0 0.0 0.00 1.50 1.50 95 994.9
20260502032413 5 327 0.0 0.0 0.00 1.50 1.50 95 995.0
20260502031910 5 345 0.0 0.0 0.00 1.50 1.50 95 994.9
20260502031409 5 301 0.0 0.0 0.00 1.50 1.50 95 994.8
20260502030907 5 336 0.0 0.0 0.00 1.50 1.50 95 994.7
20260502030404 5 340 0.0 0.0 0.00 1.50 1.50 95 995.0
20260502025902 5 340 0.0 0.0 0.00 1.50 1.50 95 994.7
20260502025359 5 340 0.0 0.0 0.00 1.50 1.50 95 994.7
20260502024857 5 340 0.0 0.0 0.00 1.50 1.50 95 994.7
20260502024354 5 340 0.0 0.0 0.00 1.50 1.50 95 994.9
20260502023852 5 339 0.0 0.0 0.00 1.50 1.50 95 994.7
20260502023350 5 340 0.0 0.0 0.00 1.50 1.50 95 994.6
20260502022847 5 339 0.0 0.0 0.00 1.50 1.50 95 994.7
20260502022343 5 344 0.0 0.0 0.00 1.50 1.50 94 994.6
20260502021840 5 346 0.0 0.0 0.00 1.50 1.50 94 994.8
20260502021337 5 340 0.0 0.0 0.00 1.50 1.50 94 994.8
20260502020835 5 340 0.0 0.0 0.00 1.50 1.50 94 994.7
20260502020332 5 342 0.0 0.0 0.00 1.50 1.50 94 994.5
20260502015829 5 331 0.0 0.0 0.00 1.50 1.50 94 994.6
20260502015326 5 355 0.0 0.0 0.00 1.50 1.50 94 994.5
20260502014824 5 335 0.0 0.0 0.00 1.50 1.50 93 994.4
20260502014321 5 43 0.0 0.0 0.00 1.50 1.50 93 994.5
20260502013816 5 46 0.0 0.0 0.00 1.50 1.50 93 994.2
20260502013313 5 2 0.0 0.0 0.00 1.50 1.50 93 994.3
20260502012809 5 3 0.0 0.0 0.00 1.50 1.50 93 994.3
20260502012307 5 351 0.0 0.0 0.00 1.50 1.50 93 994.3
20260502011804 5 345 0.0 0.0 0.00 1.50 1.50 93 994.2
20260502011300 5 269 0.0 1.6 0.00 1.50 1.50 93 994.2